GEFSNE_500_meanwind_162.txt.gz
Wind_Speed
18 19 19 20 20 20 20 20 20 21 21 22 22 22 22 23 22 23 23 23 23 24 24 25 25 26 26 25 25 26 26 26 27 27 28 29 29 29
17 18 19 20 20 21 21 21 22 22 22 23 23 23 23 23 24 25 24 25 25 25 26 26 26 26 26 26 26 27 27 27 28 28 28 29 29 29
17 18 19 19 20 21 21 22 22 22 22 23 24 25 25 25 25 25 25 25 26 26 27 27 27 27 27 27 28 28 29 29 29 29 29 29 30 30
18 18 19 20 21 21 22 23 23 24 24 24 25 26 26 26 26 26 26 26 26 26 27 27 28 29 28 29 29 29 29 29 30 30 31 31 31 31
19 19 20 21 22 22 22 23 24 25 26 26 26 26 27 26 27 27 27 28 27 27 28 28 29 30 30 30 30 30 31 31 31 31 32 33 33 33
20 21 21 21 22 23 23 23 24 25 26 27 27 28 28 28 28 29 29 29 29 29 28 28 29 30 30 31 31 32 32 33 33 33 33 33 34 34
21 22 22 22 23 23 24 25 25 26 26 27 27 27 28 28 29 29 30 30 29 30 29 30 30 31 31 32 32 33 34 35 35 34 34 34 34 34
22 23 23 24 24 24 25 26 27 27 27 27 27 27 28 29 30 30 30 30 29 29 30 31 31 31 32 33 33 34 35 34 34 35 35 35 34 34
24 24 24 24 24 25 26 27 27 27 27 27 28 28 28 29 30 30 30 30 30 30 31 32 32 32 32 32 33 34 34 34 34 35 35 35 36 35
23 23 24 24 25 26 26 26 27 27 27 28 29 29 30 31 31 32 31 31 32 32 33 33 33 33 33 34 34 34 34 34 35 36 35 35 36 36
23 24 24 25 25 26 26 26 26 27 28 28 29 30 31 31 31 31 31 32 32 32 33 34 34 35 35 35 35 35 35 35 36 36 36 35 36 36
24 24 25 25 26 26 27 27 28 28 29 30 31 32 32 32 32 32 33 33 33 33 33 34 35 35 35 35 36 36 36 36 37 37 36 36 36 36
26 27 27 28 28 28 28 29 29 30 31 32 32 33 33 34 34 34 34 34 34 34 34 35 36 36 37 37 37 37 37 37 38 38 37 36 36 36
28 29 29 30 30 30 30 31 31 32 33 33 34 34 34 34 34 35 35 35 36 36 36 37 37 37 37 38 38 38 38 38 38 39 38 36 35 35
30 30 31 31 31 32 32 32 33 33 34 35 35 35 35 35 36 36 36 36 37 37 37 37 37 37 38 38 38 39 39 38 38 38 37 37 36 36
32 32 32 33 33 34 34 34 34 34 35 35 35 35 35 35 36 36 36 37 37 37 38 38 38 39 39 39 39 39 39 38 37 37 36 36 36 36
34 34 34 35 35 35 35 35 35 35 35 34 35 35 35 36 36 36 37 37 37 37 37 38 38 38 38 38 39 39 39 38 37 36 36 36 36 35
36 36 36 36 35 35 36 36 35 35 35 36 36 36 36 36 37 37 37 37 37 37 37 38 38 38 38 39 39 38 38 38 37 37 37 36 35 35
37 37 37 36 36 36 36 36 36 36 36 37 37 37 37 37 37 37 38 38 38 38 37 37 38 38 39 39 38 37 37 37 36 36 35 35 34 34
37 36 37 37 37 37 37 37 37 37 37 37 38 38 38 38 37 37 38 38 38 37 37 37 37 38 38 37 36 36 36 35 35 34 34 33 33 33
36 36 37 37 37 37 37 37 37 38 38 38 38 38 38 38 38 38 38 38 37 37 37 37 37 37 37 36 36 35 35 34 34 33 33 33 33 32
38 38 37 37 37 37 38 38 38 39 38 38 38 38 38 38 38 37 37 37 37 37 37 37 36 36 35 35 35 35 34 35 34 33 33 32 32 32
39 38 38 37 38 38 38 38 39 39 39 38 38 37 38 38 37 37 37 37 36 36 36 36 35 35 35 34 34 34 33 33 32 32 31 31 31 31

GEFSNE_500_meanwind_168.txt.gz
Wind_Speed
14 15 16 16 17 17 18 19 19 19 20 20 20 20 20 20 20 20 21 22 23 23 24 25 25 24 24 24 25 25 26 26 26 26 25 25 25 26
14 14 15 16 16 17 18 19 20 20 21 22 22 22 22 22 22 22 23 24 24 24 24 25 25 25 25 25 26 26 27 27 27 26 26 26 26 26
16 16 16 16 17 18 19 19 19 20 20 21 22 23 23 24 24 25 25 25 25 26 26 26 27 27 26 26 26 27 27 28 28 28 28 28 27 28
17 17 17 17 18 18 19 19 20 21 21 22 22 23 24 25 26 26 27 27 27 27 28 28 28 27 28 28 28 28 28 28 28 29 29 29 29 30
17 18 18 18 19 19 20 21 22 22 22 23 23 24 25 26 27 27 28 28 28 28 28 29 29 29 29 29 29 29 29 29 30 30 31 31 31 31
19 19 19 20 21 21 22 22 23 23 24 24 25 25 26 27 28 28 28 28 28 28 28 28 28 28 29 29 29 29 29 30 30 31 31 32 32 32
21 21 21 22 23 23 23 24 25 25 25 26 26 26 26 27 28 28 28 28 27 27 28 28 28 29 29 29 29 29 29 30 30 31 31 31 32 32
22 22 22 23 23 23 24 24 25 26 27 28 28 28 27 28 28 28 28 28 28 29 29 29 29 29 30 29 30 30 31 31 30 30 30 31 31 32
23 24 23 23 23 24 24 25 26 27 27 28 28 29 29 28 28 29 29 29 29 29 30 30 30 30 30 31 31 31 31 31 32 32 32 32 32 32
24 24 24 24 24 25 25 26 27 27 27 28 28 28 28 29 30 30 30 30 30 30 31 31 31 31 30 31 31 32 32 32 33 33 33 34 34 34
26 26 26 26 26 27 27 27 27 28 28 28 28 29 29 30 31 31 32 32 31 31 32 32 32 32 32 32 32 33 34 34 35 36 36 36 35 35
28 28 28 28 28 29 29 28 29 29 29 29 29 30 31 31 32 33 33 33 33 32 32 32 32 33 33 33 34 34 35 35 36 36 36 35 35 35
29 29 29 29 29 29 30 30 30 30 31 32 32 32 33 33 33 34 34 34 34 34 34 34 34 34 34 34 34 35 35 36 36 35 35 35 36 36
30 30 30 31 30 30 31 31 31 31 32 33 33 33 34 34 34 34 35 35 35 35 35 36 35 35 35 35 35 35 35 36 36 36 35 35 35 36
32 32 32 32 32 32 32 33 33 33 33 34 34 34 34 34 34 34 34 35 35 35 35 36 36 36 36 36 35 35 36 36 35 36 36 35 36 36
32 32 32 32 32 33 33 33 34 34 34 35 35 35 35 34 35 35 35 35 35 35 36 36 37 37 37 37 36 36 36 35 35 35 36 36 36 36
33 33 33 33 33 34 34 34 34 35 35 36 36 36 36 36 36 36 36 36 36 37 37 37 38 38 38 38 37 37 37 37 37 36 36 36 36 35
35 35 35 35 35 35 35 35 35 36 36 37 37 37 37 37 37 37 37 38 38 38 38 39 39 39 38 38 37 37 37 37 37 36 36 35 35 34
37 36 36 36 37 36 36 36 36 36 37 37 37 38 38 38 38 38 39 40 40 40 39 39 39 39 38 38 37 37 37 37 36 36 36 35 35 34
38 38 38 38 38 38 38 37 37 37 37 37 38 38 38 38 39 39 40 40 40 40 39 39 39 39 38 38 37 36 36 36 35 34 34 33 33 33
39 39 39 38 38 38 38 38 38 37 38 38 38 39 39 39 40 40 41 40 40 39 39 39 39 38 37 37 36 35 35 35 34 33 33 32 31 31
40 40 39 39 39 39 39 39 39 39 39 40 40 40 40 41 41 41 41 41 40 40 39 39 38 37 36 35 35 34 34 33 33 32 31 31 30 30
40 40 40 40 40 39 39 40 40 40 40 40 41 41 41 41 41 41 41 40 40 39 39 38 37 36 35 34 34 33 33 32 31 31 30 30 30 29

GEFSNE_500_meanwind_174.txt.gz
Wind_Speed
12 13 13 14 14 15 16 17 18 20 20 20 20 21 22 23 23 24 25 25 25 24 25 26 27 27 27 27 27 28 29 29 29 29 28 28 29 29
14 14 15 15 15 16 17 17 18 19 19 20 21 21 22 23 23 24 24 24 25 26 26 27 28 28 29 29 29 29 30 30 30 30 30 30 30 30
14 15 17 17 17 18 19 19 19 19 19 20 22 21 21 22 23 23 24 24 25 26 26 27 28 29 30 30 29 30 30 31 32 31 31 31 30 30
16 16 17 18 18 19 20 20 20 20 20 21 22 23 23 23 23 24 24 25 26 26 27 27 28 29 30 31 31 32 31 31 31 31 31 31 31 31
17 18 18 18 19 20 21 21 22 22 21 21 22 23 24 24 24 24 25 26 27 27 27 28 28 29 30 31 31 31 31 31 31 31 31 30 31 31
18 18 19 19 20 20 21 22 22 22 23 23 23 23 24 24 24 25 26 26 27 28 27 27 27 28 29 30 30 30 31 31 31 31 31 31 31 30
20 20 20 20 20 21 21 21 22 22 23 23 24 24 25 25 25 26 26 26 27 27 27 28 28 29 29 30 30 30 31 31 30 31 31 31 31 31
21 22 22 21 21 21 21 22 22 22 23 24 24 25 25 26 26 26 26 26 27 28 29 29 29 29 30 30 30 31 31 31 31 31 31 31 31 31
23 23 23 23 23 23 23 23 23 24 24 25 25 25 26 26 27 27 27 27 28 29 30 30 30 31 31 31 31 32 31 31 31 31 31 32 32 33
24 24 25 25 24 24 24 24 24 24 25 25 26 27 28 28 29 29 29 29 30 30 30 30 31 32 32 32 32 33 33 32 32 32 33 33 34 34
26 26 25 26 26 26 26 26 25 26 26 26 26 27 28 29 29 30 30 31 31 31 32 32 32 32 32 32 32 33 33 33 33 33 33 34 35 35
27 27 27 27 27 27 27 27 27 27 27 27 28 28 28 29 30 30 30 31 32 32 32 33 33 33 32 33 34 34 34 34 34 34 35 35 36 36
28 27 27 27 27 27 27 28 28 28 28 29 29 29 29 29 30 30 30 30 31 32 32 32 32 32 32 32 33 34 34 34 35 35 35 35 36 36
29 28 27 27 27 27 28 28 29 29 30 30 30 30 30 30 31 32 32 32 32 32 32 32 32 32 33 33 33 34 35 35 35 35 35 36 36 36
29 28 28 28 28 28 29 29 30 30 31 31 31 31 31 31 31 32 33 33 33 33 33 33 34 34 34 35 35 35 36 36 37 36 36 36 37 37
31 31 30 29 29 29 29 30 31 31 32 32 32 33 33 33 33 33 33 34 34 34 35 35 35 35 35 35 36 36 36 36 36 36 36 37 37 37
33 33 32 31 31 31 31 32 32 33 33 33 33 33 34 34 34 34 34 34 35 35 36 36 36 36 37 37 37 37 37 37 37 37 37 37 37 37
34 34 34 34 34 34 33 34 34 33 33 34 34 34 34 35 35 35 35 36 37 37 37 36 37 37 37 37 38 38 37 37 38 38 37 37 37 37
36 36 35 35 36 35 35 35 35 35 35 35 35 35 35 36 37 37 37 38 38 38 38 39 39 39 39 38 39 39 38 38 38 37 37 37 37 36
37 36 37 37 37 36 36 36 36 36 36 36 36 37 37 37 38 38 39 39 39 39 39 39 39 39 39 39 38 38 38 38 37 37 36 36 35 35
36 37 37 37 37 37 37 37 36 36 37 37 38 38 39 39 39 39 39 39 39 39 39 39 39 40 40 39 38 38 37 37 36 36 35 35 34 33
37 37 37 38 37 37 37 37 37 37 37 38 38 39 39 40 40 40 40 40 40 40 40 40 39 39 38 38 37 36 35 35 35 34 34 33 33 32
37 37 37 37 37 37 38 38 38 38 38 39 39 39 39 40 40 40 40 40 40 40 40 40 39 38 37 37 36 36 35 35 34 34 33 33 32 32

GEFSNE_500_meanwind_180.txt.gz
Wind_Speed
13 14 15 17 18 19 20 21 21 21 22 23 23 24 24 24 25 24 25 25 26 27 27 27 28 28 28 29 29 29 30 30 30 30 30 30 30 29
14 15 17 17 18 19 20 21 22 22 22 23 24 25 24 24 25 25 25 25 25 26 27 28 28 29 29 29 30 30 30 30 30 31 31 30 30 30
16 18 18 18 19 19 20 21 23 23 24 24 25 25 26 25 25 25 26 26 26 26 27 27 28 29 29 30 30 30 30 30 31 31 31 30 31 31
17 18 19 19 20 21 21 21 22 23 23 24 25 26 26 26 26 26 26 27 27 27 27 28 29 29 29 30 29 30 31 31 31 31 31 31 32 32
18 18 19 20 20 21 22 22 23 24 24 24 24 25 26 27 27 27 27 27 27 28 28 29 29 29 29 30 29 30 31 31 31 31 31 32 32 32
19 20 20 21 21 22 22 23 24 24 24 24 23 25 26 26 26 27 27 27 28 29 29 29 29 29 30 30 30 30 30 31 31 32 32 32 32 33
21 22 22 22 21 22 22 23 24 24 24 25 25 25 26 26 26 27 27 26 27 28 28 29 30 30 30 31 31 31 30 31 32 32 32 32 32 32
24 24 24 23 23 23 23 23 24 24 25 25 26 26 27 27 27 27 27 27 28 28 29 29 30 31 31 31 31 31 31 32 32 32 32 32 32 32
25 25 25 25 25 25 25 25 25 25 25 25 26 26 27 27 27 27 28 28 28 29 30 30 31 31 32 32 32 32 32 32 33 33 33 33 32 32
27 27 27 27 27 27 26 26 27 27 27 26 26 26 27 27 27 28 28 28 28 29 30 30 31 32 33 33 33 34 34 34 34 35 35 35 34 34
28 28 28 28 28 27 26 27 27 27 27 27 27 27 27 28 28 28 29 29 29 30 30 31 32 33 34 34 34 34 34 34 35 35 35 35 35 35
29 30 29 29 29 28 27 27 28 28 28 28 28 28 28 28 29 29 29 29 29 30 31 32 32 33 33 33 33 34 34 34 35 35 35 35 36 36
30 31 31 30 30 30 29 29 29 29 29 29 29 29 30 30 30 30 30 31 31 31 32 32 33 33 33 33 34 34 35 35 35 35 35 35 36 37
32 31 31 31 31 31 30 30 31 31 30 30 30 30 30 31 31 32 32 32 32 33 33 34 34 34 34 35 35 36 36 36 36 36 37 37 37 38
33 33 33 33 33 32 32 32 32 32 32 32 31 31 31 32 32 32 33 33 33 34 34 35 35 36 36 37 37 37 37 37 37 37 37 37 38 38
34 34 34 34 34 34 34 34 34 34 34 33 33 33 32 32 33 33 34 35 35 36 36 36 36 37 37 38 38 38 38 38 38 38 39 39 39 38
35 36 36 35 36 36 36 36 35 35 35 34 34 34 34 34 35 35 36 36 36 37 37 38 38 39 39 39 39 39 39 39 39 39 39 38 38 38
36 37 37 37 37 37 37 37 37 37 36 36 36 36 36 36 36 36 37 37 37 38 38 39 39 39 39 39 40 39 39 39 39 39 39 39 38 38
37 37 38 38 37 37 37 38 38 38 38 38 38 38 37 38 38 38 38 38 38 38 39 39 39 39 39 39 39 40 39 39 39 40 40 40 39 38
37 38 38 38 38 38 38 38 38 38 38 39 39 39 39 39 39 39 39 39 39 40 40 40 40 40 40 40 39 39 40 39 39 39 39 39 39 38
39 39 39 39 38 38 38 38 37 37 38 38 39 38 38 39 39 40 40 40 41 41 41 41 41 41 41 40 40 40 40 39 39 38 38 37 37 35
40 39 39 38 38 38 38 37 37 37 38 39 39 39 39 39 40 40 40 41 41 41 41 41 41 41 41 40 40 40 40 40 39 38 37 36 36 34
39 39 38 38 38 37 37 36 37 38 39 39 39 39 39 39 39 39 40 40 40 40 40 40 40 40 40 39 39 39 39 38 38 37 36 34 34 33

GEFSNE_500_meanwind_186.txt.gz
Wind_Speed
13 13 14 15 16 16 17 18 18 19 20 22 22 22 22 22 23 23 24 24 25 25 25 25 25 26 26 26 26 26 27 27 27 27 27 29 29 29
13 14 15 15 16 17 18 18 19 19 19 21 22 22 23 23 23 24 24 24 25 25 25 26 26 26 27 26 27 27 27 27 27 27 28 28 28 29
14 15 16 17 18 18 18 19 20 20 20 21 22 23 23 23 23 24 25 26 26 27 27 27 27 27 27 27 28 28 28 28 28 28 29 29 29 29
16 17 17 17 18 19 19 20 20 20 21 21 22 23 23 23 23 24 25 26 26 27 27 28 28 28 28 28 28 28 28 28 29 30 30 29 29 29
16 17 17 18 19 19 20 20 20 21 21 21 22 22 23 24 24 25 25 25 26 26 26 27 27 27 27 27 27 28 28 29 29 29 29 29 29 29
17 18 18 18 19 19 20 20 20 21 22 22 21 22 23 24 25 26 26 27 26 26 26 27 27 27 27 27 28 28 28 28 29 30 30 29 29 30
19 19 20 20 20 20 21 21 21 22 22 22 23 23 24 25 26 26 27 27 27 26 27 27 28 28 28 28 28 28 29 30 30 31 31 31 31 31
21 22 21 21 22 22 22 22 22 23 23 23 24 25 25 26 26 27 27 27 27 28 28 27 28 28 29 28 28 29 30 31 31 32 32 32 32 32
23 23 22 22 23 23 24 24 24 24 24 25 25 26 26 26 27 27 27 28 28 28 28 28 29 29 30 30 31 31 32 32 32 32 32 32 33 33
24 25 25 24 24 25 25 25 25 25 25 26 26 26 27 27 27 28 28 28 28 28 29 29 30 31 31 31 32 32 32 32 32 32 33 33 33 33
27 28 27 27 27 27 27 26 27 27 27 26 27 27 28 28 29 29 29 29 29 29 30 30 30 30 30 30 31 31 32 33 33 34 34 35 35 35
29 29 29 29 29 29 28 28 28 28 28 28 28 29 29 29 30 30 31 31 31 31 31 31 31 31 31 31 32 32 33 34 34 34 35 35 35 35
31 31 31 31 30 29 29 29 29 29 30 30 30 30 31 31 32 32 32 32 32 32 32 32 32 32 32 32 33 33 34 35 35 35 35 35 35 35
33 33 33 32 30 30 30 30 30 30 31 32 32 32 32 33 33 33 33 33 33 33 33 34 34 34 34 35 35 35 35 36 36 36 36 36 36 36
35 35 34 32 31 31 31 32 32 33 33 33 34 34 34 35 35 34 34 34 34 34 34 35 35 35 35 36 36 36 37 37 37 37 37 37 37 37
36 35 34 33 33 33 33 33 34 34 34 34 35 35 35 35 35 35 35 35 35 35 35 35 36 36 36 37 37 37 37 38 38 37 37 37 38 38
36 36 35 35 35 35 35 35 35 35 35 35 35 36 36 36 37 37 37 37 36 36 36 36 36 36 37 37 38 38 39 38 38 38 38 38 38 38
36 35 35 35 35 36 36 36 36 37 38 38 38 38 38 38 38 38 38 38 38 38 37 37 37 37 38 38 38 38 38 39 39 39 39 39 39 39
37 36 35 35 36 36 36 36 37 37 38 38 39 39 38 38 38 38 38 39 38 38 38 38 38 38 38 38 38 38 38 38 39 38 38 38 39 39
36 36 36 36 37 37 37 37 38 38 38 38 38 38 38 38 39 39 39 39 39 38 38 38 37 38 38 38 38 38 38 38 38 38 37 37 37 37
36 36 37 38 38 38 38 38 38 38 38 38 38 38 38 38 38 39 38 38 37 38 38 38 38 38 38 38 38 38 38 38 38 38 38 38 37 37
38 38 38 38 38 38 39 39 38 38 38 38 38 38 38 38 39 39 39 38 38 37 37 38 37 38 38 38 38 38 38 38 38 38 38 37 37 36
37 37 37 37 37 38 38 38 37 37 37 38 38 38 38 38 39 39 39 38 37 37 37 37 37 37 37 37 37 37 37 37 38 38 37 36 35 34

GEFSNE_500_meanwind_192.txt.gz
Wind_Speed
11 12 12 13 13 14 15 15 16 17 17 19 19 19 19 20 21 22 21 21 21 22 23 23 24 24 24 24 25 25 26 26 26 26 26 26 26 26
13 14 14 14 14 15 16 17 17 17 17 18 18 19 20 21 22 22 21 21 22 22 23 24 24 24 24 25 25 25 26 26 27 27 27 27 26 27
14 15 16 16 16 16 16 17 18 18 18 18 19 19 20 21 21 21 21 21 22 22 23 24 24 24 24 25 25 26 26 26 26 27 28 28 27 27
16 16 16 17 18 18 18 19 19 19 19 19 19 20 20 21 21 21 22 22 22 22 23 23 24 24 25 25 25 25 25 26 26 27 28 28 28 28
18 18 18 18 19 20 20 20 21 21 21 20 21 21 21 21 22 22 22 22 23 23 23 24 25 25 26 26 26 27 27 27 27 27 27 27 28 27
20 20 20 20 20 20 21 22 22 22 22 22 22 22 22 22 22 22 22 23 23 24 25 25 25 26 26 26 27 27 27 28 28 28 28 28 28 28
22 21 21 22 22 22 22 23 23 23 23 23 23 23 23 23 23 23 23 24 24 24 24 25 26 26 26 26 27 28 28 28 28 29 29 29 29 29
24 23 23 23 23 23 23 24 24 24 24 24 25 25 25 25 25 25 25 25 25 25 25 26 26 26 27 27 27 27 27 27 28 29 29 29 30 30
25 25 25 25 26 26 25 26 26 26 26 26 26 26 26 26 26 26 27 27 27 27 27 27 27 28 28 27 27 27 27 27 28 28 29 30 31 31
28 28 27 28 28 28 27 27 28 28 28 28 28 28 28 28 27 27 28 28 28 29 29 29 29 29 29 29 28 28 28 28 28 28 28 29 29 30
31 30 30 30 30 30 30 30 30 30 30 30 29 29 29 29 29 29 29 29 30 30 30 31 30 30 29 29 30 30 30 30 30 30 31 31 31 31
32 31 32 32 32 32 32 32 32 32 31 31 30 30 30 30 30 31 31 31 31 32 32 32 32 31 31 31 32 32 32 32 32 32 32 32 32 32
32 32 32 33 34 34 33 32 32 32 32 31 31 31 31 31 32 32 33 33 33 33 33 33 33 33 33 33 33 33 33 33 33 33 33 33 33 33
33 33 34 35 35 34 34 33 33 34 33 33 32 32 33 33 34 34 34 34 34 34 34 34 34 34 34 34 34 34 34 33 33 33 33 34 34 34
34 34 35 36 36 35 34 35 35 35 35 34 34 34 35 35 36 36 36 35 35 35 35 35 35 35 35 35 34 34 34 34 34 34 34 35 35 35
36 37 37 37 37 36 35 35 35 35 35 35 35 36 36 36 36 36 36 36 36 36 35 35 35 35 35 36 36 35 35 35 35 35 35 35 35 35
39 39 38 38 37 37 37 37 37 37 37 36 36 36 36 37 37 37 37 37 37 36 36 36 36 36 36 36 36 36 36 37 37 37 36 36 36 36
40 40 39 39 39 38 38 38 38 38 38 38 38 38 37 38 38 38 38 37 37 37 36 36 36 36 36 36 37 36 36 37 37 38 38 37 37 36
40 40 40 40 40 40 39 39 38 38 37 37 37 38 37 37 38 38 38 38 38 37 37 37 36 37 37 36 36 37 37 37 38 38 38 38 37 37
41 41 40 40 40 40 39 39 38 38 37 37 37 37 37 37 37 38 38 38 38 38 38 38 38 38 37 37 37 36 37 38 37 37 37 37 37 37
40 40 40 40 40 40 39 39 38 37 37 37 37 37 37 37 38 38 38 37 37 37 37 38 38 38 38 37 37 37 37 37 37 36 37 37 37 37
41 41 41 40 39 39 38 37 37 37 36 37 37 38 38 38 38 38 38 37 37 38 38 38 38 38 38 37 38 38 37 37 36 36 37 37 37 36
40 40 40 39 37 37 37 36 37 37 37 38 39 39 39 38 38 38 38 38 38 38 38 38 38 38 38 38 38 38 37 37 36 36 37 37 36 35

GEFSNE_500_meanwind_198.txt.gz
Wind_Speed
10 10 10 11 11 11 12 12 13 13 14 15 15 16 16 17 17 17 18 19 19 20 20 21 22 22 23 23 24 24 24 24 24 24 25 25 26 26
11 11 11 11 11 12 12 13 14 14 15 15 15 16 16 17 17 18 18 18 19 19 19 20 21 21 22 23 23 23 23 23 23 24 25 26 25 26
12 12 13 13 14 14 14 15 15 16 16 17 17 17 18 18 18 18 19 19 19 20 20 20 21 21 21 22 22 22 23 23 23 24 24 25 25 26
14 14 14 15 16 16 16 16 16 17 17 18 18 18 18 19 19 20 20 19 19 20 20 20 20 21 22 22 22 22 23 23 24 25 25 26 26 27
15 15 15 16 17 17 17 18 18 18 19 19 19 20 20 20 21 21 21 21 20 20 20 20 20 21 21 22 23 23 24 25 25 26 27 27 27 27
17 17 18 19 19 19 19 19 20 20 20 20 20 21 21 21 21 22 22 22 22 21 21 21 21 21 22 22 23 23 24 24 25 26 27 28 28 28
20 20 21 22 22 21 21 21 21 21 22 22 22 22 23 22 22 23 23 23 23 23 22 22 22 23 24 24 24 24 25 25 25 26 26 27 28 29
22 23 23 23 23 23 23 23 22 22 23 23 24 24 23 23 23 23 23 23 24 24 24 24 24 24 25 25 25 26 26 26 26 26 27 27 28 29
25 25 25 26 25 25 26 25 24 24 24 24 24 25 25 24 24 24 24 24 24 25 26 26 26 26 27 27 27 27 27 27 27 28 28 28 28 29
26 27 27 28 28 29 28 27 26 25 25 25 25 25 26 26 26 25 25 26 26 26 27 27 28 28 29 28 28 28 28 29 29 30 30 30 30 30
28 28 29 29 29 29 28 27 27 26 26 27 26 26 27 27 26 26 27 27 28 28 28 28 29 29 30 30 29 29 29 30 30 31 31 32 33 33
30 30 30 30 29 28 27 27 27 27 27 28 28 28 28 28 28 28 28 29 29 29 30 30 30 30 30 31 31 31 31 31 31 32 32 33 33 33
31 31 31 30 30 28 28 28 27 28 28 29 29 29 29 29 29 30 30 30 31 31 31 31 32 32 32 32 32 32 32 32 32 33 32 32 33 33
32 32 33 32 30 29 29 29 29 29 30 30 30 30 31 31 31 32 32 32 32 33 33 33 33 34 33 33 33 33 33 33 33 33 33 33 33 33
33 33 33 33 32 31 31 31 31 31 31 30 30 31 32 32 33 33 34 33 33 33 34 34 34 34 34 34 34 34 34 34 34 34 34 34 34 34
35 35 35 34 33 33 33 33 33 33 32 31 31 32 32 32 33 33 33 33 33 34 34 34 34 34 34 34 34 34 34 34 34 34 34 35 35 35
37 37 37 36 34 34 34 34 34 34 34 34 34 34 33 33 34 34 34 34 34 34 34 35 35 35 35 35 35 35 35 34 35 35 35 35 35 35
38 38 37 35 35 35 35 35 35 35 35 34 35 35 35 35 35 35 35 35 34 35 35 35 35 36 35 35 35 35 35 34 34 35 35 34 35 35
38 37 37 36 35 35 36 36 36 36 36 36 36 36 36 36 35 36 35 35 36 35 36 36 36 35 35 35 35 35 35 35 35 35 35 36 35 35
39 37 37 36 35 36 36 37 36 36 36 37 37 37 36 37 37 36 36 36 36 36 35 35 36 36 35 35 36 36 36 36 36 36 36 36 36 35
39 38 38 37 36 36 35 35 35 35 36 36 36 37 37 37 37 37 37 37 36 36 36 36 36 36 36 36 36 36 36 37 37 37 36 36 36 36
37 37 36 35 35 34 34 35 35 36 36 36 37 37 37 37 37 37 37 37 37 37 37 37 37 37 37 36 36 36 36 37 37 37 37 37 37 37
36 35 34 34 34 34 34 34 34 34 35 36 36 36 36 36 36 36 37 38 37 37 37 37 36 37 37 37 37 36 36 36 36 36 37 37 37 36

GEFSNE_500_meanwind_204.txt.gz
Wind_Speed
12 12 13 13 13 13 13 14 14 14 15 15 16 17 17 17 17 17 17 18 18 18 19 19 19 19 19 19 20 20 21 21 21 21 22 22 22 23
12 12 12 13 13 14 14 15 15 15 16 16 17 18 19 18 18 18 18 18 19 19 19 19 19 20 20 21 21 21 21 21 21 21 22 22 23 23
13 13 13 14 15 15 16 16 16 16 17 18 18 19 20 20 20 20 20 20 20 20 20 20 20 20 21 21 21 21 22 22 22 22 22 23 23 23
16 16 16 17 17 17 17 18 18 18 18 18 19 20 21 21 21 21 22 22 22 22 22 22 22 22 22 22 22 22 22 22 22 23 24 24 24 25
18 18 18 19 19 19 20 20 20 21 21 21 21 21 22 23 23 23 23 23 23 23 23 23 23 23 23 23 23 23 23 23 23 23 24 25 25 25
21 21 21 21 21 21 22 23 23 23 24 24 24 24 24 24 24 24 24 24 23 23 23 23 23 23 23 23 24 24 24 24 24 24 25 25 26 26
24 23 23 24 24 24 24 24 25 25 26 26 26 26 26 26 25 25 24 24 24 24 24 24 24 24 24 24 25 25 25 25 25 26 26 26 27 28
27 26 26 26 26 25 26 26 26 26 27 27 28 27 27 27 26 26 25 25 25 25 25 24 24 25 25 25 25 26 26 26 26 27 27 28 29 29
30 29 28 28 28 28 27 27 27 28 28 28 28 28 28 27 26 25 25 26 26 25 25 26 26 26 26 26 26 26 27 27 28 29 29 29 30 31
30 30 29 29 29 29 28 28 28 29 30 29 29 29 28 27 26 26 27 27 27 27 26 27 27 27 27 27 28 28 28 29 30 30 31 31 31 32
32 31 30 30 31 30 30 30 30 30 30 30 30 30 29 28 27 27 27 28 27 27 28 29 29 29 29 29 29 29 30 30 31 31 32 33 33 33
32 32 32 32 32 32 32 31 31 31 31 31 31 30 30 29 29 28 29 29 29 29 29 29 29 29 29 30 30 31 31 31 32 33 33 33 34 35
34 33 33 33 34 33 33 33 33 33 32 32 32 31 31 31 30 30 30 30 30 30 30 30 31 31 31 31 31 31 32 32 32 33 33 33 34 34
35 35 36 35 36 35 35 35 35 35 34 33 33 33 33 33 32 32 32 33 32 32 32 32 32 33 33 33 33 33 33 33 33 34 34 35 35 35
36 36 37 37 37 37 36 36 35 35 35 34 34 34 34 34 34 33 33 33 33 33 32 33 33 33 34 33 33 33 33 33 34 34 34 35 35 35
36 36 37 37 36 36 36 36 36 36 35 35 35 34 34 34 34 34 34 34 33 33 33 34 34 34 34 34 33 33 33 34 34 34 35 35 35 35
37 37 37 38 37 37 36 37 37 37 36 36 35 35 35 35 35 35 35 34 34 34 34 35 35 35 34 34 34 34 34 34 35 35 35 35 36 36
38 38 39 38 37 37 36 36 36 36 36 36 36 36 35 35 36 36 36 36 36 35 36 36 36 36 35 34 34 35 35 35 35 35 35 36 36 36
39 38 38 37 37 37 36 35 36 36 36 36 36 36 36 37 37 36 36 36 36 35 36 37 37 36 36 36 36 36 36 36 36 35 36 36 36 37
38 37 36 36 36 37 36 36 36 37 37 37 37 37 37 37 37 37 36 36 36 36 37 37 36 36 37 37 37 36 36 36 36 36 36 36 37 37
36 37 37 37 37 37 37 37 36 36 37 37 36 37 37 37 36 36 36 36 37 37 37 37 36 36 37 37 36 36 36 37 37 37 36 36 37 36
37 36 36 36 36 37 37 37 37 37 36 36 36 36 36 36 36 36 36 36 37 37 37 37 37 37 37 37 36 36 36 36 36 36 36 37 37 36
35 35 35 36 36 35 36 37 37 36 35 34 34 34 34 35 34 35 35 36 37 38 37 37 37 37 37 37 37 37 36 36 36 36 36 37 36 35

GEFSNE_500_meanwind_210.txt.gz
Wind_Speed
12 12 13 13 13 13 14 14 14 14 14 14 15 16 16 17 18 18 18 19 19 19 20 20 20 21 20 21 21 20 20 19 19 19 19 19 19 20
14 14 14 15 15 15 15 15 16 16 16 16 16 16 17 18 19 19 20 20 20 20 20 21 21 21 21 21 21 22 21 21 22 22 22 22 22 22
15 16 16 16 16 16 16 16 17 17 17 18 18 18 18 19 20 20 21 21 22 22 22 22 23 22 22 21 21 21 22 22 23 23 23 23 23 23
16 17 17 17 18 18 18 18 19 19 20 20 20 21 21 21 21 22 22 22 23 23 24 24 24 24 24 23 23 23 23 23 24 24 24 24 24 24
18 18 19 19 20 20 20 21 21 21 22 23 22 22 22 23 23 23 23 23 23 23 24 25 25 25 25 24 24 24 24 24 25 25 25 25 25 25
21 21 21 21 21 22 23 23 23 24 24 24 24 24 24 24 24 24 24 25 25 25 25 26 25 25 25 25 24 24 25 25 25 25 26 26 26 27
24 24 24 24 24 24 25 25 25 25 25 25 25 25 25 26 26 26 25 26 26 27 27 26 25 26 26 26 26 26 26 26 26 26 26 27 27 28
27 27 27 27 27 27 27 27 27 27 27 26 26 26 26 26 27 27 27 27 27 27 27 26 27 27 27 27 27 26 26 27 27 27 27 27 28 29
29 29 30 30 29 29 29 28 28 28 27 27 27 27 27 27 28 28 28 28 28 28 27 27 27 27 27 27 27 27 27 27 27 27 28 28 28 29
30 31 31 30 30 30 30 29 29 29 29 29 28 28 28 28 28 29 29 29 29 28 28 28 28 28 28 27 27 27 27 27 27 28 28 29 29 30
31 31 31 31 31 31 32 31 31 31 31 31 30 30 29 29 30 30 30 30 29 29 29 29 29 29 28 28 28 28 28 28 28 28 29 29 30 31
33 33 33 33 33 33 33 33 33 32 32 32 31 31 31 31 31 31 31 31 30 30 30 30 29 29 29 29 29 29 29 29 30 30 30 30 30 31
35 35 35 36 36 36 36 35 35 35 35 34 33 32 32 33 33 32 32 32 31 30 30 30 30 30 30 30 30 30 30 30 30 30 30 30 31 31
36 36 37 37 37 37 37 36 37 37 36 35 35 34 34 34 34 33 32 32 32 31 31 31 31 31 31 30 30 31 31 30 31 31 31 31 32 32
37 38 38 38 38 37 37 38 38 38 37 37 36 36 35 35 35 34 33 33 33 33 32 32 32 32 32 31 31 30 31 31 32 32 32 32 32 33
38 38 37 37 38 38 37 37 37 38 37 37 38 37 37 36 36 35 35 34 34 33 33 33 33 33 32 32 32 32 32 32 32 32 33 33 33 34
38 38 38 38 37 37 37 37 37 37 37 38 38 38 37 38 37 37 35 35 35 35 34 34 35 35 34 33 33 33 33 33 33 33 34 34 34 34
38 38 37 36 36 36 36 37 37 37 37 37 38 38 38 38 38 37 36 36 35 35 35 35 36 36 35 35 34 34 34 34 33 33 34 34 34 35
38 37 36 35 34 34 35 35 36 36 37 38 38 38 38 37 37 37 37 37 37 37 37 36 37 36 36 35 34 33 34 34 34 34 34 34 34 34
38 38 37 36 35 34 35 35 35 35 36 37 37 38 37 37 37 37 37 37 36 36 36 37 37 37 36 35 34 33 33 34 34 34 34 34 34 34
38 37 36 36 36 35 35 35 35 35 35 35 35 35 35 36 37 37 37 36 37 37 37 37 36 36 36 35 34 34 34 35 35 35 34 34 34 34
36 36 36 36 36 36 35 35 35 34 35 35 35 35 36 36 37 38 37 37 38 38 38 37 36 36 36 35 35 35 35 35 35 35 34 34 35 35
36 36 36 36 36 36 36 35 35 35 35 36 36 36 36 36 37 37 38 38 38 37 36 36 36 36 35 34 34 34 34 34 34 35 35 35 35 35

GEFSNE_500_meanwind_216.txt.gz
Wind_Speed
13 13 14 14 14 14 14 14 14 14 14 14 13 14 14 15 15 15 15 16 16 17 17 18 19 19 19 19 19 18 19 19 19 19 19 20 20 20
14 15 15 15 15 15 16 16 16 16 15 16 15 15 15 16 16 17 17 17 17 18 18 19 19 20 19 19 19 20 20 20 21 20 20 21 22 21
16 16 16 16 16 17 17 18 18 18 18 17 17 17 18 18 18 18 18 19 19 19 20 20 20 20 20 21 21 21 21 21 21 21 22 22 22 22
18 17 17 18 18 18 19 19 19 19 19 19 19 19 19 20 21 21 20 20 20 21 21 21 21 21 21 21 21 22 22 22 22 22 22 22 22 22
19 19 19 20 20 21 21 21 21 21 21 21 21 21 22 22 23 23 23 22 22 22 22 22 22 22 22 21 22 22 22 22 23 23 23 23 23 23
22 22 22 22 22 23 23 23 23 22 23 23 23 23 23 23 24 24 25 24 24 24 23 23 23 23 22 22 23 23 23 23 23 24 24 24 24 24
24 24 24 24 24 24 24 25 25 24 24 24 25 25 25 26 26 26 26 26 25 24 25 25 25 24 24 23 23 23 24 24 24 24 25 25 25 26
24 24 24 25 26 27 27 26 26 27 26 26 26 26 26 27 27 27 27 27 26 26 26 26 26 25 25 24 24 25 25 25 25 25 25 25 26 26
25 26 27 27 28 28 29 29 29 29 29 28 28 27 27 28 28 28 28 28 28 27 27 27 26 26 26 25 25 25 26 26 26 26 25 26 26 26
28 28 29 30 30 30 30 30 30 30 30 29 29 29 29 29 29 29 29 30 30 29 28 28 28 27 27 27 27 27 26 26 26 27 27 26 26 26
30 30 31 31 31 31 31 31 30 30 30 31 31 31 31 31 31 30 30 30 30 30 30 30 29 28 27 27 27 27 27 28 28 28 28 28 28 28
32 32 32 32 32 33 32 33 32 32 32 32 32 33 33 32 32 32 31 31 31 30 30 30 30 29 28 28 28 28 28 29 29 29 29 28 28 28
33 33 33 33 33 34 35 35 35 35 35 35 34 34 34 33 32 32 32 32 31 30 30 30 30 30 30 29 29 30 30 30 30 30 30 29 29 28
34 34 34 34 35 36 36 37 37 37 37 37 36 35 34 34 33 33 33 33 32 32 32 32 32 32 32 30 30 31 30 30 30 30 30 30 29 29
36 36 37 37 37 37 37 38 38 38 37 37 36 35 35 35 35 35 34 33 33 33 33 33 33 33 33 32 31 32 31 30 30 29 29 30 30 30
38 38 38 39 39 38 39 39 39 39 38 36 36 36 36 36 36 36 35 35 35 35 35 35 34 34 34 33 33 33 33 32 32 32 32 32 32 31
40 40 40 39 40 40 40 40 40 39 38 37 37 36 36 36 36 36 37 37 37 36 35 35 35 35 35 35 34 33 33 34 34 33 32 33 32 32
39 39 39 40 40 40 40 39 39 39 38 38 37 37 37 37 37 37 37 37 37 36 35 35 35 36 36 36 35 34 34 34 34 34 34 34 33 33
40 40 39 39 40 40 40 40 39 38 38 38 38 38 38 38 38 37 36 36 36 36 35 35 35 36 36 36 35 35 35 34 34 34 34 33 33 32
40 39 39 39 40 40 40 39 38 37 38 38 38 38 38 38 37 37 36 36 35 35 35 35 36 36 37 36 36 36 36 35 34 34 33 34 34 33
40 39 39 39 39 39 38 38 38 38 38 37 37 37 37 37 36 36 36 35 35 35 35 35 35 36 36 36 35 34 34 33 33 33 33 34 33 32
39 38 38 39 39 38 38 38 38 37 36 36 37 37 37 37 36 36 36 35 34 35 35 34 34 35 35 34 33 33 33 32 33 33 33 33 32 32
37 37 38 38 38 38 38 38 37 37 37 37 37 36 36 36 36 36 36 36 35 35 35 34 34 34 34 33 33 33 32 32 32 33 33 32 31 30

GEFSNE_500_meanwind_222.txt.gz
Wind_Speed
13 14 15 14 14 13 13 13 13 13 13 13 13 14 14 14 14 14 14 14 15 15 16 16 16 17 17 17 17 17 17 18 18 18 18 19 19 19
14 15 15 15 15 14 14 14 14 14 14 14 15 14 15 15 15 16 16 16 16 16 17 17 17 17 17 18 17 17 18 19 19 19 19 19 19 20
16 16 16 17 16 15 15 15 15 16 15 15 16 16 16 17 17 17 17 18 18 18 18 17 18 18 18 18 18 18 18 19 19 19 19 19 20 21
17 17 17 18 18 17 17 17 18 18 17 17 17 18 18 18 19 19 19 20 20 20 19 19 19 19 20 19 19 19 20 19 19 20 20 21 21 21
19 18 18 18 18 18 18 19 19 19 19 18 18 19 19 19 20 20 20 21 21 21 21 21 21 21 21 21 20 20 20 20 20 21 21 21 22 22
20 20 19 19 20 20 19 20 20 21 20 20 20 20 20 21 22 22 22 21 22 22 22 22 22 22 22 22 22 22 22 22 22 22 22 22 22 21
21 21 21 21 21 21 21 21 22 22 21 21 21 21 22 22 24 24 25 24 23 24 24 24 24 24 24 24 23 23 23 22 22 22 22 22 22 22
23 23 23 22 22 22 22 23 23 23 23 23 23 23 23 24 25 25 26 26 25 26 26 26 25 25 25 25 25 24 24 24 24 23 23 23 23 23
26 25 25 24 25 24 24 24 24 25 25 25 25 25 25 25 26 26 26 27 27 28 28 27 26 26 27 27 26 26 26 25 25 25 25 25 24 24
28 28 27 27 27 27 26 26 26 27 27 27 27 27 27 26 26 26 27 27 28 28 28 28 27 28 28 28 28 28 27 27 27 26 26 26 25 26
30 30 29 29 29 29 29 29 28 28 29 29 28 28 29 29 28 28 28 28 28 28 28 28 28 29 29 29 29 29 29 29 28 28 27 27 27 27
32 32 32 32 31 31 31 30 30 30 30 30 30 30 30 31 31 30 30 29 29 29 30 29 29 30 30 30 30 30 30 30 29 29 29 28 28 28
33 33 34 33 33 33 33 32 32 32 31 31 32 31 31 32 32 32 32 31 31 30 31 31 31 31 31 31 31 31 31 31 30 30 30 30 30 30
33 33 34 34 34 35 35 34 33 33 33 32 32 32 32 32 32 33 33 33 33 32 32 32 32 32 32 32 32 32 32 31 30 31 31 31 31 30
34 33 33 34 35 36 36 36 35 35 34 34 33 33 33 34 33 33 34 34 34 33 34 34 33 33 33 33 33 33 33 32 32 31 31 31 31 31
34 34 34 35 35 35 37 38 37 36 36 35 35 35 35 35 35 35 35 35 35 34 35 35 35 34 34 34 34 34 34 33 33 33 32 31 31 31
35 36 36 36 36 37 37 38 37 37 37 37 37 36 36 36 36 36 36 36 36 35 35 36 36 36 35 34 34 34 34 34 34 33 33 33 32 32
36 37 37 37 37 37 38 38 39 39 39 39 39 38 38 37 36 36 36 36 36 35 35 35 35 35 35 34 33 34 34 34 34 34 34 33 33 32
36 37 38 37 37 37 38 39 39 39 39 39 39 39 38 38 37 36 36 36 35 35 35 35 35 36 35 35 34 34 34 34 34 34 34 34 33 32
35 35 36 36 36 37 38 38 38 38 38 38 38 39 38 38 37 36 36 36 35 35 35 35 36 36 36 36 35 34 34 35 35 35 35 34 33 32
34 34 34 34 35 35 36 37 37 37 37 37 37 37 37 37 37 36 36 35 35 35 35 36 36 36 36 35 35 34 34 34 35 34 34 33 33 32
34 34 34 34 34 35 35 36 37 37 37 37 37 37 37 37 37 36 35 35 35 35 35 35 35 35 34 34 34 34 33 33 34 34 33 33 33 32
33 33 33 33 33 33 33 34 34 34 34 35 35 36 36 36 35 35 35 34 34 34 33 33 34 34 33 33 33 33 33 33 33 32 32 31 31 31

GEFSNE_500_meanwind_228.txt.gz
Wind_Speed
14 14 14 14 15 16 16 16 16 16 16 17 18 18 18 18 18 17 17 17 17 17 17 16 16 17 17 17 17 17 17 16 17 17 18 18 18 18
15 15 16 16 17 17 17 17 17 16 17 18 18 19 20 20 19 19 19 18 18 18 18 18 17 17 18 18 17 17 17 17 17 18 19 19 19 19
17 17 18 18 18 18 18 18 18 18 18 18 19 20 20 21 20 20 20 19 19 19 19 19 19 19 20 20 19 19 19 19 19 19 20 20 20 20
19 19 19 20 20 19 19 19 20 20 19 19 19 19 20 20 20 21 21 21 20 20 21 21 21 22 21 21 21 21 21 21 21 21 21 21 21 21
22 22 21 21 21 21 21 21 21 21 21 21 20 20 20 20 19 20 21 21 22 23 23 23 23 23 23 23 23 22 23 22 22 22 22 22 22 22
24 24 24 23 22 23 23 23 23 22 22 22 21 21 21 20 20 20 21 23 24 24 25 25 25 25 25 25 24 24 24 24 23 23 23 23 23 23
26 27 26 25 25 25 25 25 25 24 24 23 23 22 22 22 22 23 23 23 24 25 26 27 27 27 27 26 26 26 26 25 25 25 25 24 24 24
28 28 27 27 27 27 27 27 27 26 25 25 25 24 24 24 24 25 25 25 25 26 27 27 27 28 28 28 28 28 28 27 26 25 25 24 24 25
31 30 29 29 29 30 29 29 28 28 28 27 26 26 26 27 27 27 27 27 27 27 27 28 28 29 29 29 29 29 29 28 27 26 26 26 25 25
33 34 32 31 32 31 31 31 31 31 31 30 29 28 29 29 29 29 29 29 29 29 29 29 29 29 30 30 30 29 29 29 28 28 27 27 27 27
34 34 34 33 33 33 33 33 33 33 33 32 31 31 31 31 31 31 31 30 30 30 30 30 30 30 30 30 30 30 30 29 29 29 29 29 29 29
35 35 35 35 35 35 34 33 34 34 34 33 33 34 33 33 33 33 33 32 32 31 31 31 32 31 31 30 30 30 30 30 30 30 30 30 30 30
36 36 35 35 35 36 36 35 35 35 35 35 35 35 35 35 34 34 34 34 34 33 33 33 33 32 32 31 31 31 31 31 31 31 31 31 31 31
36 36 36 35 36 36 36 36 36 36 36 36 36 36 36 36 36 36 35 35 35 35 35 35 34 33 33 33 32 32 32 32 32 32 32 31 31 32
35 35 35 35 35 35 36 36 37 36 36 36 37 37 37 36 36 37 36 36 36 36 36 37 36 35 35 34 34 33 33 34 33 32 31 31 31 31
35 35 35 36 36 35 36 37 37 37 37 37 38 38 37 38 38 38 37 37 37 37 37 37 37 37 36 36 36 35 35 35 34 33 32 32 32 31
36 36 35 36 36 36 36 36 36 37 37 38 38 38 38 38 39 38 38 38 38 37 36 36 36 36 36 36 35 34 35 35 34 34 32 31 31 32
36 36 36 37 37 36 35 36 37 37 38 38 38 38 38 38 38 38 38 38 38 37 37 37 37 37 37 37 36 35 35 35 35 35 33 32 32 32
34 34 35 36 36 35 35 36 37 37 37 38 38 38 38 38 37 37 37 37 37 37 37 36 37 37 37 36 35 35 35 35 35 34 33 32 32 33
33 34 35 35 36 35 36 37 37 37 37 37 37 38 37 37 37 37 37 37 38 37 37 37 37 37 37 36 35 35 35 35 35 34 34 33 33 33
33 33 34 35 35 35 35 35 35 35 35 35 35 35 36 36 36 35 35 35 36 36 36 36 36 36 36 35 35 35 35 35 35 35 35 34 34 34
33 33 33 33 33 33 33 33 33 33 33 33 33 34 35 36 36 36 36 35 35 35 35 35 35 35 35 34 34 34 34 34 34 34 34 34 34 34
32 31 30 30 31 31 32 32 33 32 32 32 32 33 34 35 35 35 34 34 34 34 34 33 34 34 34 34 34 34 33 33 33 33 33 33 32 32

GEFSNE_500_meanwind_234.txt.gz
Wind_Speed
13 13 14 14 15 15 16 16 16 16 16 17 17 17 17 18 18 18 18 18 18 17 17 17 17 17 17 17 17 16 17 17 16 16 16 16 16 16
15 15 16 16 17 17 17 17 17 17 17 18 18 18 18 19 20 19 19 19 19 19 19 19 19 19 19 18 18 17 17 17 17 17 17 16 16 17
16 17 18 18 19 19 18 18 18 19 19 19 20 20 20 20 20 21 20 20 20 20 20 20 20 20 20 20 19 19 19 19 19 18 18 18 18 18
19 19 20 21 21 21 21 21 21 21 21 22 22 21 21 22 22 22 22 23 22 21 21 21 21 21 21 21 21 21 20 20 20 20 20 20 20 19
22 22 23 23 23 23 24 24 24 24 24 24 24 23 24 24 24 24 24 23 23 23 23 22 22 22 22 22 22 22 21 22 21 21 21 21 20 20
24 24 25 25 26 26 26 26 27 27 27 26 26 25 25 25 25 24 24 24 24 23 24 24 24 23 23 23 23 23 22 22 23 22 22 22 22 22
27 27 27 27 28 28 28 28 28 28 28 27 27 27 26 26 26 26 25 26 26 26 26 26 26 25 25 25 24 24 24 24 25 25 24 24 24 24
29 30 30 29 29 29 29 28 28 29 29 29 29 29 28 29 29 28 28 28 28 28 28 27 26 26 26 27 27 27 27 27 26 26 26 25 26 26
32 32 32 31 31 31 31 31 31 31 30 31 31 30 31 31 31 31 31 31 30 30 30 29 28 28 28 28 29 29 29 29 28 28 28 27 27 27
33 33 33 32 32 33 33 33 33 33 32 32 32 33 33 33 33 33 33 33 33 32 31 31 31 31 31 30 29 30 30 30 29 29 29 29 29 28
35 35 34 33 33 34 34 34 34 34 34 34 34 33 34 35 36 36 35 35 34 33 33 33 33 33 32 31 31 31 30 30 30 30 29 29 29 29
36 36 36 35 35 35 36 36 35 35 36 36 36 35 36 36 36 37 37 36 36 35 34 34 34 34 34 33 33 32 32 31 31 31 31 31 31 31
37 37 37 37 37 37 37 36 37 37 37 37 38 38 37 37 37 37 38 38 37 37 36 36 35 35 35 34 34 33 32 32 33 32 32 32 32 33
37 37 37 37 38 38 38 38 38 38 38 38 38 38 38 37 37 37 38 38 39 38 37 36 37 37 36 36 35 35 34 34 34 34 33 33 33 33
37 37 37 37 37 37 37 38 38 38 38 38 38 37 37 36 37 37 37 37 38 38 38 38 38 38 37 37 37 36 35 35 35 34 34 34 34 34
36 36 36 35 36 36 36 36 36 37 37 37 37 37 36 36 36 36 35 35 36 37 37 37 38 38 38 37 37 37 37 36 36 35 35 34 35 35
36 36 35 35 35 35 36 35 35 36 36 36 37 37 37 36 36 35 35 35 35 35 36 37 37 37 37 37 37 37 37 36 36 35 35 35 35 34
37 36 36 36 35 35 36 35 34 34 35 35 36 36 36 36 35 35 35 36 35 35 36 37 38 38 37 37 37 37 37 37 36 35 34 34 34 34
36 36 36 36 35 35 35 34 34 34 35 35 34 34 34 34 34 34 34 35 35 36 36 36 37 37 37 36 36 37 36 35 35 34 34 34 33 33
35 36 35 35 34 34 34 34 33 34 35 34 33 33 33 34 34 34 33 33 34 35 36 36 36 36 36 36 36 36 35 34 34 33 32 32 33 33
35 34 33 33 34 34 35 34 33 33 33 33 32 31 31 32 32 33 33 32 33 34 34 34 34 35 35 35 35 33 33 34 33 33 33 33 32 32
33 32 32 33 33 33 33 33 32 32 32 32 31 31 31 31 31 31 31 31 31 32 33 33 33 33 34 34 34 33 32 32 32 33 32 32 31 31
32 32 33 32 32 31 31 31 31 31 31 31 31 31 31 31 31 31 31 31 31 31 31 30 31 31 31 32 31 31 30 30 30 31 31 32 31 30

GEFSNE_500_meanwind_240.txt.gz
Wind_Speed
14 14 15 15 15 15 15 15 16 16 16 15 15 15 15 15 16 17 17 17 18 18 18 18 19 18 18 18 17 17 17 17 17 17 17 16 16 16
16 16 16 16 16 16 16 16 17 16 17 17 17 17 17 17 17 18 19 20 20 20 20 20 20 20 20 19 19 19 19 19 19 18 18 17 16 16
18 18 18 18 18 18 18 19 19 19 19 19 19 19 20 20 20 21 21 21 21 21 22 22 21 21 21 21 21 21 21 20 20 19 19 18 18 17
20 20 20 21 21 21 21 21 22 21 21 21 21 21 22 22 22 23 23 23 23 23 23 23 22 22 22 22 23 22 22 22 21 21 21 20 20 19
23 23 23 23 23 23 23 23 24 24 24 24 23 23 23 23 24 24 23 23 23 23 23 23 23 23 23 24 24 24 23 23 23 22 22 22 21 21
26 26 25 25 25 25 25 26 26 26 26 26 26 25 25 25 25 25 24 24 24 24 24 24 24 24 25 25 26 26 25 25 25 24 23 23 23 22
27 27 27 27 27 28 28 28 28 28 28 28 27 27 27 27 27 26 26 26 26 26 26 26 26 26 26 27 27 27 27 27 26 26 25 25 24 24
29 29 29 29 30 29 29 28 29 29 30 30 29 29 28 29 29 28 28 28 28 28 29 29 29 28 29 29 29 28 28 28 28 28 28 27 26 26
31 31 31 31 32 32 31 31 32 32 32 32 31 32 31 31 31 31 31 31 31 31 31 31 31 30 30 30 30 30 30 29 29 29 29 29 28 28
32 32 32 33 33 34 34 34 33 33 33 33 33 34 34 33 33 33 33 33 33 33 33 32 32 32 31 31 30 30 30 30 29 29 30 30 30 29
34 34 34 35 35 35 35 34 34 34 34 35 35 35 34 35 35 35 35 35 35 35 34 33 33 33 32 31 31 31 31 31 31 31 31 31 31 31
36 35 36 36 36 36 36 35 35 35 36 36 36 36 36 36 36 36 36 36 36 35 34 34 33 33 32 32 32 32 31 31 31 31 32 32 32 32
37 35 36 37 37 37 38 38 37 37 38 38 38 38 37 37 37 37 36 37 36 35 34 34 34 34 33 32 32 32 32 32 32 32 32 32 33 33
37 37 37 37 38 38 38 39 39 39 39 39 38 38 38 37 37 37 37 36 36 35 34 35 34 34 34 33 33 33 33 33 32 32 32 32 32 32
38 38 38 38 38 37 38 38 39 39 39 39 38 38 38 38 36 36 36 36 36 36 35 35 35 34 34 34 34 34 34 34 33 33 34 34 33 33
38 37 38 37 38 38 38 38 37 37 38 38 37 36 37 37 36 35 36 36 36 35 35 35 34 34 34 33 34 34 34 34 33 33 33 34 34 34
38 38 38 38 38 37 36 36 36 35 35 36 36 36 36 36 36 36 36 36 36 35 35 34 34 34 34 34 34 34 33 33 33 33 33 33 34 33
38 38 38 38 38 37 36 36 35 35 35 35 35 35 35 35 35 34 35 36 36 35 35 34 33 33 34 33 33 33 33 33 33 33 33 34 33 32
38 38 38 37 36 35 35 35 35 35 35 35 34 34 34 35 35 34 34 35 35 34 34 33 33 34 34 33 33 33 33 32 33 33 33 33 32 32
38 37 36 35 34 34 34 35 35 35 35 35 35 34 34 34 35 35 34 34 34 34 34 34 33 33 33 33 32 31 31 31 31 32 32 32 32 31
36 35 34 34 34 34 34 34 35 35 35 34 34 34 34 35 34 34 33 33 34 34 34 34 33 32 32 32 31 31 30 31 31 31 32 32 31 30
34 34 34 34 34 33 34 34 34 34 34 34 33 34 34 34 34 34 33 33 33 33 34 33 32 32 32 32 30 30 29 30 30 30 29 29 30 29
34 34 34 34 34 34 33 33 33 33 33 33 33 34 34 35 34 34 33 33 32 32 31 31 30 30 31 30 29 28 28 28 29 29 28 28 28 28

GEFSNE_500_meanwind_246.txt.gz
Wind_Speed
14 13 13 13 13 13 13 13 13 14 14 14 15 15 15 15 16 16 16 16 16 16 16 16 16 16 17 17 18 18 19 18 18 18 18 18 17 17
14 14 15 15 14 14 14 14 15 15 16 16 17 17 17 17 17 17 17 17 18 18 18 18 17 18 18 19 19 20 20 20 20 20 20 19 19 19
16 16 17 17 17 17 17 18 18 18 18 18 18 18 18 18 18 18 18 18 19 20 19 19 19 20 20 21 21 21 21 22 22 22 21 21 21 21
18 18 19 19 18 18 19 20 20 21 21 20 20 20 20 19 19 19 20 20 21 21 21 21 21 22 23 23 24 23 24 23 23 23 23 23 23 23
19 19 19 19 19 19 20 21 22 23 23 23 22 22 22 21 22 22 22 22 23 23 23 23 24 24 24 24 25 25 25 25 25 25 25 25 25 25
21 21 21 21 22 22 23 24 24 25 25 25 25 25 24 25 24 24 24 24 24 24 24 24 24 25 25 26 26 26 27 27 26 26 26 26 25 26
23 23 24 24 25 26 26 27 27 27 27 28 28 27 26 27 27 26 26 26 25 25 25 25 26 26 27 27 27 27 27 27 27 27 26 26 26 26
25 25 26 26 27 28 28 29 28 29 29 29 29 28 28 28 29 28 28 28 27 27 28 28 28 29 29 29 29 29 28 28 28 28 28 27 27 27
27 27 28 28 29 29 30 30 29 29 29 29 30 29 30 30 30 30 30 30 30 30 30 30 30 31 31 31 31 30 30 29 29 29 29 29 28 29
29 29 29 29 29 30 30 30 30 30 31 31 31 30 30 31 32 32 32 32 33 32 33 33 32 32 32 32 31 31 31 31 31 30 30 30 31 30
30 30 29 30 30 31 31 31 31 31 32 32 31 31 31 32 33 34 34 34 34 34 34 34 34 34 33 32 32 32 32 32 31 31 31 31 31 32
32 32 32 32 32 32 32 32 32 32 32 32 32 32 33 34 35 35 35 35 35 34 35 35 34 34 33 33 33 33 33 32 32 32 32 32 32 32
34 32 32 33 33 33 33 33 33 33 33 33 33 34 34 35 35 35 36 36 35 35 34 35 34 34 34 33 33 33 33 33 33 33 33 32 32 32
34 34 33 33 33 34 34 33 33 34 34 34 34 35 35 36 36 36 36 36 35 35 35 35 34 34 34 34 33 33 33 34 34 34 33 32 31 31
34 34 34 34 34 35 35 35 34 35 35 35 35 36 36 36 35 35 35 35 35 35 35 35 35 34 34 35 35 34 33 33 33 33 32 32 32 32
35 34 34 34 34 34 35 35 35 35 35 35 35 35 35 35 35 35 35 35 35 35 36 35 35 35 34 34 35 34 34 33 32 32 32 32 32 32
34 34 34 35 35 35 35 35 35 35 34 34 33 33 33 33 34 34 35 35 35 34 35 35 35 35 35 34 34 33 33 33 32 32 32 32 31 31
34 34 34 35 35 35 34 34 34 34 33 33 33 33 33 33 34 34 35 34 34 34 34 34 35 35 34 34 34 33 33 32 32 32 32 32 32 31
33 33 33 34 34 34 34 34 33 34 33 33 33 33 33 33 33 33 33 33 33 33 33 33 34 34 34 33 33 33 33 32 32 32 32 32 31 32
33 33 33 33 33 33 33 33 32 33 33 33 33 33 33 32 32 32 32 32 32 33 33 33 34 34 33 33 32 32 32 32 32 31 31 31 31 31
33 33 33 33 33 33 33 33 33 33 33 33 33 33 32 32 32 32 32 32 32 32 33 33 33 33 33 33 32 32 32 33 33 31 30 30 31 31
33 33 32 33 33 33 33 33 33 33 33 33 32 32 32 32 33 33 32 32 32 32 32 32 32 33 32 31 31 31 30 30 30 30 29 29 29 29
33 32 33 33 34 34 34 34 34 33 33 32 32 32 32 33 33 33 33 33 32 32 32 30 30 31 31 30 30 30 30 29 28 28 27 27 27 27